User: anonymous   Login
Location: Chiroubles
(46.1812°N, 4.6660°E)
Time: 04:48:34
(UTC+00:00)
Language:

Cosmos 1378 Rocket - Orbit

View from above orbital plane
View from above orbital plane
View from above satellite
View from above satellite

Ground track
Ground track

The orbit data is extracted from the following two-line orbital elements,

1 13272U 82059B   20304.78191488  .00000074  00000-0  58602-5 0  9991
2 13272  82.5124  61.8328 0018864  14.8344 345.3421 14.84722057 74630
Epoch (UTC): 30 October 2020 18:45:57
Eccentricity: 0.0018864
inclination: 82.5124°
perigee height: 601 km
apogee height: 627 km
right ascension of ascending node: 61.8328°
argument of perigee: 14.8344°
revolutions per day: 14.84722057
mean anomaly at epoch: 345.3421°
orbit number at epoch: 7463

The dashed part of the orbit path shows where the satellite is in the earth's shadow,  

DLR